Regional Weather Roundup
Issued by NWS

Home | Current Version | Previous Version | Graphics & Text | Print | Product List | Glossary On
Versions: 1 2 3 4 5 6 7 8 9 10 11 12 13 14 15 16 17 18 19 20 21 22 23 24 25 26 27 28 29 30 31 32 33 34 35 36 37 38 39 40 41 42 43 44 45 46 47 48 49 50
000
ASUS45 KBOU 241707
RWRCO

WEATHER ROUNDUP FOR COLORADO
NATIONAL WEATHER SERVICE DENVER/BOULDER CO
1100 AM MDT MON APR 24 2017

NOTE: "FAIR" INDICATES FEW OR NO CLOUDS BELOW 12000 FEET WITH NO
SIGNIFICANT WEATHER AND/OR OBSTRUCTIONS TO VISIBILITY.

COZ001>005-013-030-031-241800-
...NORTHWEST COLORADO...

CITY           SKY/WX    TMP DP  RH WIND       PRES   REMARKS
CRAIG          FAIR      52  38  58 NE7       29.76F
HAYDEN         FAIR      48  34  57 E3        29.78F
MEEKER         FAIR      54  35  48 VRB5      29.76F
MOUNT WERNER   NOT AVBL
STEAMBOAT SPGS FAIR      45  35  67 CALM      29.78F
WALDEN           N/A     46  28  49 SW13G20   29.81F
$$

COZ006>008-011-241800-
...WEST CENTRAL VALLEYS...

CITY           SKY/WX    TMP DP  RH WIND       PRES   REMARKS
GRAND JUNCTION FAIR      63  32  31 CALM      29.74F
MONTROSE       FAIR      61  25  25 CALM      29.79F
EAGLE          MOSUNNY   57  25  28 SW14G25   29.79F
RIFLE          FAIR      58  34  40 W12       29.76F
DELTA          PTSUNNY   64  29  27 NE6       29.77F
NUCLA          PTSUNNY   59  28  31 CALM      29.83F
$$

COZ017>023-064>068-241800-
...SOUTHWEST COLORADO...

CITY           SKY/WX    TMP DP  RH WIND       PRES   REMARKS
DURANGO        FAIR      58  20  22 VRB5      29.89F
CORTEZ         FAIR      63  23  21 SW15      29.84F
PAGOSA SPRINGS FAIR      57  15  18 SW10      29.93F
TELLURIDE      PTSUNNY   50  17  27 S10G17    29.95S
WOLF CREEK PAS FAIR      32  19  59 S23G31    30.08F WCI  19
$$

COZ009-010-012-014-032>034-037-058>063-241800-
...CENTRAL COLORADO...

CITY           SKY/WX    TMP DP  RH WIND       PRES   REMARKS
ASPEN          FAIR      53  22  29 VRB6      29.82F
BUENA VISTA    PTSUNNY   54  13  20 SE8       29.82F
COPPER MTN     FAIR      36   9  32 SW14G38   29.96S HAZE
BERTHOUD PASS  FAIR      28  18  64 W29G39    29.92F WCI  13
COTTONWOOD PAS FAIR      50  12  22 SW17G40   29.85R
GUNNISON       FAIR      56  21  25 SW16G25   29.84F
KREMMLING      PTSUNNY   59  32  36 SW13      29.79F
LEADVILLE      PTSUNNY   45   9  23 W10G17    29.88F
MONARCH PASS   PTSUNNY   34  21  60 W36G43    30.10F WCI  19
SALIDA         FAIR      59  19  21 S9G24     29.90F
SUNLIGHT       CLOUDY    36  25  64 SW12G24   29.96S
WILKERSON PASS FAIR      43   5  21 SW9G25    29.94F
$$

COZ069>075-241800-
...SAN LUIS VALLEY/SANGRE DE CRISTO MOUNTAINS...

CITY           SKY/WX    TMP DP  RH WIND       PRES   REMARKS
ALAMOSA        FAIR      63  15  15 W21G31    29.85F
LA VETA PASS   FAIR      45  18  33 SW20G44   30.04R
SAGUACHE       PTSUNNY   61  18  18 W16G24    29.85F
$$

COZ035-036-038>040-241800-
...NORTHERN COLORADO FRONT RANGE...

CITY           SKY/WX    TMP DP  RH WIND       PRES   REMARKS
DENVER INTL AP PTSUNNY   62  35  36 NE7G16    29.71S
DMNS CITY PARK   N/A     62  35  36 E10G20    29.70S
AURORA         PTSUNNY   61  35  37 E8        29.72S
FRONT RANGE AP NOT AVBL
ERIE MUNI ARPT FAIR      63  34  33 E12       29.68F
BOULDER MUN AP FAIR      63  36  36 NE9       29.67F
CENTENNIAL     PTSUNNY   61  33  35 NE12      29.71F
BROOMFIELD     MOSUNNY   61  37  41 E9        29.71F
FORT COLLINS   FAIR      64  31  28 VRB6      29.68S
LONGMONT       FAIR      66  38  35 SE9       29.70S
$$

COZ041-046-047-076>085-087-088-241800-
...PIKES PEAK/PALMER DIVIDE AND SOUTHERN FOOTHILLS...

CITY           SKY/WX    TMP DP  RH WIND       PRES   REMARKS
COLO. SPRINGS  PTSUNNY   67  22  18 CALM      29.72F
A. F. ACADEMY  FAIR      65  13  13 S7G29     29.71S
SCHRIEVER AFB  FAIR      65  24  21 E5        29.73F
ELLICOTT       FAIR     N/A N/A N/A SW14      29.72S
FALCON         FAIR      64  20  18 SW10G21   29.76S
FORT CARSON    FAIR      69  17  13 W15G24    29.68F
LIMON          FAIR      62  37  39 N18       29.72S
MONUMENT HILL  FAIR      59  27  29 SE6       29.76F
TRINIDAD       FAIR      71  16  12 NE7       29.73F
$$

COZ042>045-048>051-090-091-241800-
...NORTHEAST COLORADO...

CITY           SKY/WX    TMP DP  RH WIND       PRES   REMARKS
GREELEY ARPT   FAIR      64  27  24 N18G28    29.67F
AKRON          FAIR      63  34  33 N22G29    29.68S
BURLINGTON     NOT AVBL
WRAY           NOT AVBL
STERLING       FAIR      64  36  34 N17G24    29.65R
HOLYOKE        FAIR      66  39  37 NW22G30   29.64R
FORT MORGAN    FAIR      66  25  20 N16G24    29.69R
$$

COZ086-089-092>099-241800-
...SOUTHEAST COLORADO...

CITY           SKY/WX    TMP DP  RH WIND       PRES   REMARKS
PUEBLO         FAIR      70  35  27 SE15      29.67F
LA JUNTA       FAIR      72  37  28 S13       29.67F
LAMAR          FAIR      71  39  31 SE5       29.65S
SPRINGFIELD      N/A     74  34  23 NE8       29.68F
$$



USA.gov is the U.S. government's official web portal to all federal, state and local government web resources and services.